When you browse on this site, cookies collect data to enhance your experience and personalize the content and advertising you see.
Visit our Privacy Policy to learn more. By continuing to use the site, you agree to this use of cookies and data.
  • Em Portugal
  • Lista de países
  • Para 7 dias
  • Temperatura da água
  • Mapas de satélite
  • Mapa do tempo
  • Widgets de tempo
  • user-avatar
    Iniciar Sessão

    Previsão horária em Porto Alegre

    Hoje, 13 Dezembro, Quinta-feira

    Tempo Temperatura Precipitação Vento Pressão Humidade
    00:00 +24°C° 0 mm 2 m/s 758 mmHg 88%
    01:00 +24°C° 0 mm 2 m/s 758 mmHg 88%
    02:00 +24°C° 0 mm 2 m/s 758 mmHg 89%
    03:00 +24°C° 0 mm 2 m/s 758 mmHg 90%
    04:00 +24°C° 0 mm 2 m/s 758 mmHg 91%
    05:00 +23°C° 0 mm 2 m/s 759 mmHg 91%
    06:00 +23°C° 0 mm 2 m/s 759 mmHg 92%
    07:00 +25°C° 0 mm 2 m/s 759 mmHg 86%
    08:00 +26°C° 0 mm 3 m/s 759 mmHg 81%
    09:00 +27°C° 0 mm 3 m/s 759 mmHg 76%
    10:00 +29°C° 0 mm 3 m/s 758 mmHg 70%
    11:00 +31°C° 0 mm 3 m/s 758 mmHg 64%
    12:00 +33°C° 0 mm 4 m/s 758 mmHg 58%
    13:00 +33°C° 0.8 mm 4 m/s 757 mmHg 59%
    14:00 +33°C° 0.8 mm 4 m/s 757 mmHg 61%
    15:00 +33°C° 0.8 mm 4 m/s 757 mmHg 63%
    16:00 +32°C° 0.4 mm 4 m/s 757 mmHg 68%
    17:00 +29°C° 0.4 mm 4 m/s 757 mmHg 72%
    18:00 +28°C° 0.4 mm 4 m/s 756 mmHg 77%
    19:00 +27°C° 0 mm 4 m/s 757 mmHg 80%
    20:00 +26°C° 0 mm 4 m/s 757 mmHg 82%
    21:00 +25°C° 0 mm 4 m/s 757 mmHg 85%
    22:00 +25°C° 0 mm 4 m/s 756 mmHg 86%
    23:00 +25°C° 0 mm 3 m/s 756 mmHg 86%

    Amanhã, 14 Dezembro, Sexta-feira

    Tempo Temperatura Precipitação Vento Pressão Humidade
    00:00 +25°C° 0 mm 3 m/s 756 mmHg 87%
    01:00 +24°C° 0 mm 3 m/s 756 mmHg 88%
    02:00 +24°C° 0 mm 3 m/s 756 mmHg 89%
    03:00 +24°C° 0 mm 3 m/s 755 mmHg 89%
    04:00 +24°C° 0 mm 3 m/s 755 mmHg 89%
    05:00 +24°C° 0 mm 3 m/s 755 mmHg 88%
    06:00 +24°C° 0 mm 3 m/s 755 mmHg 88%
    07:00 +27°C° 0 mm 3 m/s 755 mmHg 78%
    08:00 +29°C° 0 mm 3 m/s 755 mmHg 68%
    09:00 +33°C° 0 mm 3 m/s 756 mmHg 57%
    10:00 +34°C° 0.2 mm 3 m/s 755 mmHg 52%
    11:00 +36°C° 0.2 mm 3 m/s 755 mmHg 46%
    12:00 +38°C° 0.2 mm 3 m/s 755 mmHg 40%
    13:00 +38°C° 0 mm 3 m/s 755 mmHg 39%
    14:00 +39°C° 0 mm 3 m/s 755 mmHg 39%
    15:00 +39°C° 0 mm 3 m/s 755 mmHg 39%
    16:00 +38°C° 0 mm 3 m/s 754 mmHg 44%
    17:00 +37°C° 0 mm 3 m/s 754 mmHg 49%
    18:00 +35°C° 0 mm 2 m/s 754 mmHg 53%
    19:00 +34°C° 0 mm 2 m/s 754 mmHg 58%
    20:00 +32°C° 0 mm 2 m/s 755 mmHg 62%
    21:00 +30°C° 0 mm 2 m/s 755 mmHg 66%
    22:00 +30°C° 0.1 mm 2 m/s 755 mmHg 66%
    23:00 +29°C° 0.1 mm 2 m/s 755 mmHg 67%

    Depois de amanhã, 15 Dezembro, Sábado

    Tempo Temperatura Precipitação Vento Pressão Humidade
    00:00 +29°C° 0.1 mm 3 m/s 756 mmHg 67%
    01:00 +28°C° 0.7 mm 2 m/s 755 mmHg 73%
    02:00 +27°C° 0.7 mm 2 m/s 755 mmHg 78%
    03:00 +27°C° 0.7 mm 1 m/s 754 mmHg 83%
    04:00 +27°C° 0.9 mm 2 m/s 755 mmHg 84%
    05:00 +26°C° 0.9 mm 2 m/s 756 mmHg 85%
    06:00 +26°C° 0.9 mm 2 m/s 756 mmHg 86%
    07:00 +27°C° 0.5 mm 3 m/s 757 mmHg 83%
    08:00 +28°C° 0.5 mm 3 m/s 757 mmHg 80%
    09:00 +29°C° 0.5 mm 4 m/s 757 mmHg 77%
    10:00 +32°C° 0 mm 4 m/s 757 mmHg 67%
    11:00 +35°C° 0 mm 5 m/s 757 mmHg 56%
    12:00 +37°C° 0 mm 5 m/s 757 mmHg 46%
    13:00 +37°C° 0 mm 5 m/s 757 mmHg 48%
    14:00 +36°C° 0 mm 4 m/s 757 mmHg 50%
    15:00 +36°C° 0 mm 4 m/s 757 mmHg 52%
    16:00 +34°C° 0.4 mm 4 m/s 757 mmHg 61%
    17:00 +30°C° 0.4 mm 4 m/s 757 mmHg 71%
    18:00 +28°C° 0.4 mm 4 m/s 758 mmHg 80%
    19:00 +27°C° 0.2 mm 4 m/s 758 mmHg 80%
    20:00 +26°C° 0.2 mm 4 m/s 759 mmHg 81%
    21:00 +25°C° 0.2 mm 3 m/s 760 mmHg 81%
    22:00 +25°C° 0 mm 3 m/s 760 mmHg 81%
    23:00 +24°C° 0 mm 3 m/s 760 mmHg 80%

    16 Dezembro, Domingo

    Tempo Temperatura Precipitação Vento Pressão Humidade
    00:00 +24°C° 0 mm 3 m/s 760 mmHg 80%
    01:00 +24°C° 0.1 mm 2 m/s 760 mmHg 83%
    02:00 +23°C° 0.1 mm 2 m/s 759 mmHg 85%
    03:00 +23°C° 0.1 mm 2 m/s 759 mmHg 88%
    04:00 +23°C° 0.2 mm 2 m/s 759 mmHg 88%
    05:00 +23°C° 0.2 mm 2 m/s 759 mmHg 89%
    06:00 +24°C° 0.2 mm 2 m/s 759 mmHg 89%
    07:00 +25°C° 0.2 mm 2 m/s 759 mmHg 85%
    08:00 +26°C° 0.2 mm 2 m/s 759 mmHg 81%
    09:00 +28°C° 0.2 mm 2 m/s 759 mmHg 77%
    10:00 +30°C° 0.2 mm 2 m/s 759 mmHg 71%
    11:00 +31°C° 0.2 mm 2 m/s 759 mmHg 64%
    12:00 +34°C° 0.2 mm 2 m/s 758 mmHg 58%
    13:00 +34°C° 0.1 mm 3 m/s 758 mmHg 58%
    14:00 +35°C° 0.1 mm 3 m/s 757 mmHg 58%
    15:00 +35°C° 0.1 mm 4 m/s 757 mmHg 58%
    16:00 +33°C° 0.9 mm 4 m/s 756 mmHg 65%
    17:00 +32°C° 0.9 mm 4 m/s 756 mmHg 71%
    18:00 +29°C° 0.9 mm 4 m/s 756 mmHg 78%
    19:00 +28°C° 0.9 mm 4 m/s 756 mmHg 82%
    20:00 +27°C° 0.9 mm 3 m/s 757 mmHg 86%
    21:00 +26°C° 0.9 mm 3 m/s 757 mmHg 91%
    22:00 +26°C° 0.3 mm 3 m/s 757 mmHg 91%
    23:00 +25°C° 0.3 mm 2 m/s 757 mmHg 92%

    17 Dezembro, Segunda-feira

    Tempo Temperatura Precipitação Vento Pressão Humidade
    00:00 +25°C° 0.3 mm 2 m/s 757 mmHg 93%
    01:00 +25°C° 0.2 mm 1 m/s 756 mmHg 93%
    02:00 +25°C° 0.2 mm 1 m/s 756 mmHg 93%
    03:00 +25°C° 0.2 mm 1 m/s 755 mmHg 93%
    04:00 +25°C° 0.2 mm 1 m/s 755 mmHg 93%
    05:00 +25°C° 0.2 mm 1 m/s 755 mmHg 92%
    06:00 +25°C° 0.2 mm 1 m/s 756 mmHg 92%
    07:00 +27°C° 0.1 mm 1 m/s 756 mmHg 87%
    08:00 +28°C° 0.1 mm 1 m/s 756 mmHg 81%
    09:00 +27°C° 0.1 mm 0 m/s 756 mmHg 76%
    10:00 +30°C° 1.3 mm 1 m/s 756 mmHg 75%
    11:00 +31°C° 1.3 mm 1 m/s 756 mmHg 74%
    12:00 +31°C° 1.3 mm 1 m/s 755 mmHg 74%
    13:00 +31°C° 1.7 mm 1 m/s 755 mmHg 75%
    14:00 +31°C° 1.7 mm 1 m/s 755 mmHg 76%
    15:00 +31°C° 1.7 mm 1 m/s 754 mmHg 78%
    16:00 +30°C° 0.3 mm 1 m/s 754 mmHg 79%
    17:00 +30°C° 0.3 mm 1 m/s 754 mmHg 80%
    18:00 +29°C° 0.3 mm 1 m/s 754 mmHg 82%
    19:00 +28°C° 1.4 mm 1 m/s 754 mmHg 84%
    20:00 +28°C° 1.4 mm 2 m/s 755 mmHg 86%
    21:00 +27°C° 1.4 mm 2 m/s 755 mmHg 89%
    22:00 +26°C° 4.8 mm 2 m/s 755 mmHg 90%
    23:00 +26°C° 4.8 mm 1 m/s 755 mmHg 91%

    18 Dezembro, Terça-feira

    Tempo Temperatura Precipitação Vento Pressão Humidade
    00:00 +26°C° 4.8 mm 1 m/s 755 mmHg 92%
    01:00 +25°C° 0 mm 1 m/s 755 mmHg 93%
    02:00 +25°C° 0 mm 1 m/s 754 mmHg 93%
    03:00 +25°C° 0 mm 1 m/s 753 mmHg 94%
    04:00 +25°C° 0 mm 1 m/s 754 mmHg 94%
    05:00 +25°C° 0 mm 1 m/s 754 mmHg 94%
    06:00 +25°C° 0 mm 1 m/s 755 mmHg 95%
    07:00 +25°C° 0 mm 1 m/s 755 mmHg 92%
    08:00 +26°C° 0 mm 2 m/s 756 mmHg 89%
    09:00 +27°C° 0 mm 2 m/s 757 mmHg 85%
    10:00 +28°C° 0.1 mm 2 m/s 757 mmHg 81%
    11:00 +28°C° 0.1 mm 2 m/s 757 mmHg 77%
    12:00 +29°C° 0.1 mm 3 m/s 757 mmHg 73%
    13:00 +29°C° 0.1 mm 3 m/s 757 mmHg 74%
    14:00 +29°C° 0.1 mm 3 m/s 756 mmHg 75%
    15:00 +29°C° 0.1 mm 3 m/s 756 mmHg 75%
    16:00 +28°C° 0.3 mm 3 m/s 756 mmHg 79%
    17:00 +27°C° 0.3 mm 3 m/s 756 mmHg 82%
    18:00 +26°C° 0.3 mm 3 m/s 756 mmHg 86%
    19:00 +26°C° 0.1 mm 3 m/s 757 mmHg 88%
    20:00 +25°C° 0.1 mm 3 m/s 757 mmHg 91%
    21:00 +25°C° 0.1 mm 3 m/s 757 mmHg 93%
    22:00 +25°C° 0.1 mm 3 m/s 757 mmHg 93%
    23:00 +24°C° 0.1 mm 3 m/s 757 mmHg 93%
    Mostrar mais